DW2819 Weather Reports


Display with metric or nautical units.
time (UTC)temp
F
wind
direction
speed
MPH
gust
MPH
rain 1hr
in
rain 24hr
in
rain mn
in
humidity
%
barometer
mb
20260831022306 62 161 1.0 3.0 0.00 0.02 0.02 95 1006.3
20260831021305 62 180 1.0 4.0 0.00 0.02 0.02 95 1006.4
20260831020806 62 41 1.0 4.0 0.00 0.02 0.02 95 1006.4
20260831020306 62 125 2.0 5.0 0.00 0.02 0.02 95 1006.5
20260831015805 62 102 2.0 5.0 0.00 0.02 0.02 95 1006.5
20260831015305 62 49 0.0 3.0 0.00 0.02 0.02 95 1006.6
20260831014806 62 172 0.0 2.0 0.00 0.02 0.02 95 1006.6
20260831014309 62 179 1.0 2.0 0.00 0.02 0.02 95 1006.5
20260831013808 62 192 1.0 3.0 0.00 0.02 0.02 95 1006.6
20260831013310 62 69 1.0 3.0 0.00 0.02 0.02 95 1006.7
20260831012803 62 292 0.0 4.0 0.00 0.02 0.02 95 1006.8
20260831011808 62 82 0.0 1.0 0.00 0.02 0.02 95 1006.8
20260831011306 62 117 0.0 1.0 0.00 0.03 0.02 95 1006.7
20260831010808 62 203 0.0 4.0 0.00 0.03 0.02 95 1006.9
20260831010305 62 168 1.0 4.0 0.00 0.03 0.02 95 1006.8
20260831005805 62 137 0.0 2.0 0.00 0.03 0.02 95 1006.8
20260831004802 62 141 0.0 2.0 0.00 0.05 0.02 95 1006.9
20260831004304 62 131 1.0 2.0 0.00 0.05 0.02 95 1006.9
20260831003303 62 100 0.0 2.0 0.00 0.05 0.02 95 1007.0
20260831002803 62 131 0.0 2.0 0.00 0.05 0.02 95 1007.1
20260831002306 62 118 0.0 3.0 0.00 0.05 0.02 95 1007.2
20260831001804 62 176 1.0 3.0 0.00 0.05 0.02 95 1007.1
20260831001306 62 168 0.0 3.0 0.00 0.05 0.02 95 1007.2
20260831000806 62 172 0.0 3.0 0.00 0.05 0.02 95 1007.1
20260831000305 62 151 1.0 3.0 0.00 0.06 0.02 95 1007.3
20260830235805 62 168 0.0 1.0 0.00 0.06 0.02 95 1007.4
20260830235306 62 123 0.0 1.0 0.00 0.06 0.02 95 1007.4
20260830234803 62 164 0.0 2.0 0.00 0.06 0.02 95 1007.5
20260830234302 62 125 0.0 2.0 0.00 0.07 0.02 95 1007.5
20260830233806 62 207 0.0 2.0 0.00 0.07 0.02 95 1007.6
20260830233306 62 186 1.0 2.0 0.00 0.07 0.02 95 1007.5
20260830232803 62 72 0.0 2.0 0.00 0.08 0.02 95 1007.5
20260830232305 62 183 1.0 3.0 0.00 0.09 0.02 95 1007.5
20260830231805 62 230 1.0 3.0 0.00 0.09 0.02 95 1007.6
20260830231302 62 121 0.0 4.0 0.00 0.09 0.02 95 1007.6
20260830230806 62 148 2.0 4.0 0.00 0.09 0.02 95 1007.6
20260830230306 62 121 2.0 4.0 0.00 0.10 0.02 95 1007.7
20260830225305 62 195 1.0 4.0 0.00 0.11 0.02 95 1007.7
20260830224803 62 121 1.0 4.0 0.00 0.12 0.02 95 1007.7
20260830224306 62 54 1.0 4.0 0.00 0.12 0.02 95 1007.8
20260830223809 62 145 2.0 4.0 0.01 0.12 0.02 95 1007.7
20260830223302 62 128 2.0 3.0 0.01 0.13 0.02 95 1007.7
20260830222806 62 149 2.0 3.0 0.01 0.13 0.02 95 1007.8
20260830222306 62 102 1.0 3.0 0.01 0.13 0.02 95 1007.8
20260830221806 62 118 1.0 2.0 0.01 0.13 0.02 95 1007.8
20260830221303 61 133 0.0 2.0 0.02 0.13 0.02 95 1007.9
20260830220803 61 51 0.0 2.0 0.02 0.13 0.02 95 1007.9
20260830220304 61 59 1.0 2.0 0.02 0.13 0.02 95 1008.0
20260830215807 61 124 0.0 1.0 0.02 0.12 0.02 94 1008.0
20260830215307 61 155 0.0 3.0 0.02 0.12 0.02 95 1008.0
20260830214302 61 202 0.0 3.0 0.02 0.12 0.02 95 1007.9
20260830213802 61 66 2.0 3.0 0.01 0.12 0.01 95 1008.1
20260830213306 61 82 1.0 3.0 0.01 0.12 0.01 95 1008.2
20260830212804 61 147 1.0 3.0 0.01 0.12 0.01 95 1008.2
20260830212306 61 214 1.0 2.0 0.01 0.12 0.01 94 1008.3
20260830211306 61 192 0.0 2.0 0.00 0.12 0.00 94 1008.3
20260830210813 61 62 0.0 1.0 0.00 0.12 0.00 94 1008.4
20260830205812 61 151 0.0 2.0 0.00 0.12 0.12 94 1008.5
20260830205305 61 78 0.0 1.0 0.00 0.12 0.12 94 1008.4
20260830204308 61 86 0.0 2.0 0.00 0.12 0.12 94 1008.6
20260830203306 60 113 0.0 2.0 0.00 0.12 0.12 94 1008.5
20260830202803 60 206 0.0 1.0 0.00 0.12 0.12 94 1008.5
20260830202306 60 234 0.0 1.0 0.00 0.12 0.12 94 1008.5
20260830201808 60 234 0.0 1.0 0.00 0.12 0.12 93 1008.5
20260830201317 60 234 0.0 0.0 0.00 0.12 0.12 93 1008.6
20260830200814 60 234 0.0 0.0 0.00 0.12 0.12 93 1008.5
20260830200312 60 234 0.0 0.0 0.00 0.12 0.12 94 1008.6
20260830195802 60 234 0.0 0.0 0.00 0.12 0.12 93 1008.5
20260830195323 60 234 0.0 0.0 0.00 0.12 0.12 93 1008.5
20260830194306 60 234 0.0 2.0 0.00 0.12 0.12 93 1008.6
20260830193803 60 99 0.0 0.0 0.00 0.12 0.12 93 1008.7
20260830193307 60 99 0.0 1.0 0.00 0.12 0.12 93 1008.7
20260830192803 60 99 0.0 1.0 0.00 0.12 0.12 93 1008.7
20260830192305 61 76 0.0 1.0 0.00 0.12 0.12 93 1008.7
20260830191807 60 76 0.0 1.0 0.00 0.12 0.12 93 1008.7
20260830191305 60 76 0.0 1.0 0.00 0.12 0.12 93 1008.6
20260830190804 60 76 0.0 1.0 0.00 0.12 0.12 93 1008.7
20260830190303 60 66 0.0 1.0 0.00 0.12 0.12 93 1008.7
20260830185803 60 66 0.0 1.0 0.00 0.12 0.12 93 1008.7
20260830185306 60 83 0.0 1.0 0.00 0.12 0.12 93 1008.8
20260830184802 60 54 0.0 1.0 0.00 0.12 0.12 93 1008.7
20260830184303 60 173 0.0 2.0 0.00 0.12 0.12 92 1008.8
20260830183804 60 97 0.0 2.0 0.00 0.12 0.12 92 1008.8
20260830183305 60 102 0.0 1.0 0.00 0.12 0.12 92 1008.7
20260830182806 60 103 0.0 1.0 0.00 0.12 0.12 92 1008.7
20260830182306 60 113 0.0 1.0 0.00 0.12 0.12 92 1008.7
20260830181802 60 85 0.0 2.0 0.00 0.12 0.12 92 1008.6
20260830181304 61 76 0.0 2.0 0.00 0.12 0.12 91 1008.7
20260830180806 61 140 0.0 0.0 0.00 0.12 0.12 91 1008.7
20260830180302 61 140 0.0 2.0 0.00 0.12 0.12 91 1008.6
20260830175806 61 140 0.0 2.0 0.00 0.12 0.12 91 1008.7
20260830174807 61 41 1.0 1.0 0.00 0.12 0.12 91 1008.6
20260830174305 62 39 0.0 1.0 0.00 0.12 0.12 91 1008.6
20260830173814 62 55 0.0 2.0 0.00 0.12 0.12 90 1008.6
20260830173312 62 55 0.0 2.0 0.00 0.12 0.12 90 1008.7
20260830172310 62 63 2.0 4.0 0.00 0.12 0.12 89 1008.6
20260830171807 62 48 0.0 1.0 0.00 0.12 0.12 89 1008.6
20260830171303 63 52 0.0 2.0 0.00 0.12 0.12 89 1008.5
20260830170810 63 52 0.0 2.0 0.00 0.12 0.12 89 1008.6
20260830165806 63 80 0.0 3.0 0.00 0.12 0.12 88 1008.5
20260830165305 64 80 0.0 3.0 0.00 0.12 0.12 88 1008.5
20260830163305 64 237 1.0 4.0 0.00 0.12 0.12 86 1008.4
20260830162306 64 158 1.0 3.0 0.00 0.12 0.12 86 1008.4
20260830161805 65 68 1.0 3.0 0.00 0.12 0.12 87 1008.3
20260830161305 65 16 0.0 3.0 0.00 0.12 0.12 87 1008.3
20260830160805 65 200 1.0 4.0 0.00 0.12 0.12 86 1008.2
20260830160307 65 47 1.0 4.0 0.00 0.12 0.12 85 1008.2
20260830155804 65 65 1.0 4.0 0.00 0.12 0.12 86 1008.2
20260830155306 66 86 0.0 3.0 0.00 0.12 0.12 85 1008.2
20260830154306 66 23 0.0 3.0 0.00 0.12 0.12 85 1008.2
20260830153303 66 307 0.0 3.0 0.00 0.12 0.12 85 1008.2
20260830152803 66 357 1.0 6.0 0.00 0.12 0.12 85 1008.1
20260830152306 66 152 1.0 6.0 0.00 0.12 0.12 85 1008.2
20260830151243 66 37 2.0 5.0 0.00 0.12 0.12 85 1008.1
20260830150742 66 94 1.0 5.0 0.00 0.12 0.12 85 1008.3
20260830150242 67 0 1.0 4.0 0.00 0.12 0.12 85 1008.1
20260830145736 67 127 1.0 4.0 0.00 0.12 0.12 84 1008.2
20260830145232 67 238 2.0 4.0 0.00 0.12 0.12 85 1008.1
20260830144729 67 54 0.0 4.0 0.00 0.12 0.12 86 1008.2
20260830144225 67 63 1.0 2.0 0.00 0.12 0.12 85 1008.0
20260830143725 67 44 1.0 3.0 0.00 0.12 0.12 85 1008.0
20260830143226 67 14 1.0 3.0 0.00 0.12 0.12 86 1008.1
20260830142722 67 28 1.0 2.0 0.00 0.12 0.12 86 1008.0
20260830142221 67 147 0.0 2.0 0.00 0.12 0.12 86 1007.9
20260830141708 67 110 0.0 2.0 0.00 0.12 0.12 87 1008.1
20260830141207 67 6 0.0 5.0 0.00 0.12 0.12 85 1008.0
20260830140707 67 138 1.0 5.0 0.00 0.12 0.12 85 1008.0
20260830135706 67 196 1.0 2.0 0.00 0.12 0.12 85 1008.0
20260830134705 67 250 1.0 4.0 0.00 0.12 0.12 85 1008.0
20260830134201 67 1 1.0 3.0 0.00 0.12 0.12 85 1008.0
20260830133702 67 8 1.0 3.0 0.00 0.12 0.12 85 1008.0
20260830132702 67 20 1.0 5.0 0.00 0.12 0.12 85 1007.9
20260830132204 67 69 1.0 2.0 0.00 0.12 0.12 86 1008.0
20260830131701 67 133 0.0 2.0 0.00 0.12 0.12 86 1008.0
20260830131207 67 34 1.0 3.0 0.00 0.12 0.12 86 1007.9
20260830130703 67 155 1.0 4.0 0.00 0.12 0.12 86 1008.0
20260830130205 67 80 1.0 4.0 0.00 0.12 0.12 85 1007.9
20260830125201 67 41 1.0 3.0 0.00 0.12 0.12 84 1007.8
20260830124704 67 73 2.0 4.0 0.00 0.12 0.12 84 1007.8
20260830124205 67 78 2.0 4.0 0.00 0.12 0.12 83 1007.8
20260830123700 67 230 1.0 4.0 0.00 0.12 0.12 84 1007.9
20260830122703 67 10 1.0 4.0 0.00 0.12 0.12 86 1007.8
20260830121705 67 27 2.0 4.0 0.00 0.12 0.12 83 1007.7
20260830120203 67 144 2.0 4.0 0.00 0.12 0.12 85 1007.8
20260830115702 67 314 1.0 3.0 0.00 0.12 0.12 87 1007.7
20260830114205 66 54 1.0 4.0 0.00 0.12 0.12 88 1007.9
20260830113203 66 63 1.0 5.0 0.00 0.12 0.12 89 1008.0
20260830112703 66 0 2.0 5.0 0.00 0.12 0.12 89 1007.9
20260830111703 66 13 2.0 4.0 0.00 0.12 0.12 90 1007.9
20260830111206 65 28 1.0 4.0 0.00 0.12 0.12 90 1007.9
20260830110706 65 7 2.0 3.0 0.00 0.12 0.12 91 1008.0
20260830110208 65 130 2.0 5.0 0.00 0.12 0.12 91 1007.9
20260830105706 65 23 2.0 5.0 0.00 0.12 0.12 90 1007.9
20260830104706 65 21 1.0 4.0 0.00 0.12 0.12 91 1007.9
20260830103706 64 6 1.0 3.0 0.00 0.12 0.12 92 1008.0
20260830102703 64 44 1.0 4.0 0.00 0.12 0.12 93 1007.9
20260830102201 64 35 1.0 4.0 0.00 0.12 0.12 93 1007.9
20260830101705 64 41 0.0 7.0 0.00 0.12 0.12 93 1008.1
20260830101201 64 209 2.0 7.0 0.00 0.12 0.12 93 1007.9
20260830100701 64 176 1.0 4.0 0.00 0.12 0.12 94 1008.1
20260830100203 64 134 1.0 4.0 0.00 0.12 0.12 94 1008.0
20260830095704 63 159 0.0 3.0 0.00 0.12 0.12 93 1007.9
20260830095202 63 69 1.0 3.0 0.00 0.12 0.12 94 1008.0
20260830094703 63 66 0.0 2.0 0.00 0.12 0.12 94 1007.9
20260830094207 63 63 0.0 3.0 0.00 0.12 0.12 93 1007.9
20260830093705 63 78 1.0 3.0 0.00 0.12 0.12 94 1008.0
20260830093203 63 66 1.0 3.0 0.00 0.12 0.12 94 1008.0
20260830092702 63 52 2.0 3.0 0.00 0.12 0.12 94 1007.9
20260830092208 63 71 0.0 2.0 0.00 0.12 0.12 94 1007.9
20260830091207 63 103 0.0 2.0 0.00 0.12 0.12 94 1008.0
20260830090706 63 117 0.0 1.0 0.00 0.12 0.12 94 1008.0
20260830090208 63 58 0.0 2.0 0.00 0.12 0.12 94 1007.9
20260830085204 63 49 1.0 2.0 0.00 0.12 0.12 94 1007.9
20260830084702 62 62 0.0 2.0 0.00 0.12 0.12 94 1007.9
20260830084207 62 42 0.0 2.0 0.00 0.12 0.12 94 1007.8
20260830083707 62 47 0.0 2.0 0.00 0.12 0.12 94 1007.9
20260830083206 62 245 0.0 2.0 0.00 0.12 0.12 94 1007.9
20260830082706 62 54 1.0 2.0 0.00 0.12 0.12 94 1007.8
20260830081702 62 71 1.0 3.0 0.00 0.12 0.12 94 1007.9
20260830081204 62 152 0.0 3.0 0.00 0.12 0.12 94 1008.0
20260830080701 62 90 0.0 2.0 0.00 0.12 0.12 94 1007.9
20260830075207 62 183 0.0 2.0 0.00 0.12 0.12 93 1007.8
20260830074206 62 72 0.0 2.0 0.00 0.12 0.12 94 1007.9
20260830073702 62 125 1.0 3.0 0.00 0.12 0.12 94 1007.8
20260830073201 62 97 0.0 3.0 0.00 0.12 0.12 94 1007.7
20260830072706 62 0 1.0 2.0 0.00 0.12 0.12 94 1007.7
20260830072202 62 175 0.0 2.0 0.00 0.12 0.12 94 1007.8
20260830071200 62 59 0.0 4.0 0.00 0.12 0.12 94 1007.7
20260830070701 62 331 1.0 4.0 0.00 0.12 0.12 94 1007.7
20260830070157 62 23 0.0 2.0 0.00 0.12 0.12 94 1007.8
20260830064655 62 37 0.0 1.0 0.00 0.12 0.12 94 1007.7
20260830064155 62 49 0.0 3.0 0.00 0.12 0.12 94 1007.7
20260830061630 62 176 0.0 2.0 0.00 0.12 0.12 95 1007.7
20260830061134 62 41 0.0 1.0 0.00 0.12 0.12 95 1007.6
20260830055628 62 38 1.0 2.0 0.00 0.12 0.12 94 1007.6
20260830054623 62 0 0.0 2.0 0.00 0.12 0.12 94 1007.7
20260830054117 62 104 0.0 2.0 0.00 0.12 0.12 94 1007.6
20260830053618 62 21 1.0 4.0 0.00 0.12 0.12 94 1007.5
20260830053116 62 47 0.0 4.0 0.00 0.12 0.12 95 1007.5
20260830052617 62 25 1.0 3.0 0.00 0.12 0.12 95 1007.5
20260830052114 62 73 1.0 3.0 0.00 0.12 0.12 95 1007.6
20260830051115 62 80 1.0 2.0 0.00 0.12 0.12 95 1007.5
20260830050611 62 54 1.0 3.0 0.00 0.12 0.12 95 1007.7
20260830050114 62 76 0.0 3.0 0.00 0.12 0.12 95 1007.6
20260830045607 62 111 1.0 3.0 0.00 0.12 0.12 95 1007.6
20260830045107 62 28 0.0 2.0 0.00 0.12 0.12 95 1007.6
20260830044606 61 61 0.0 2.0 0.00 0.12 0.12 94 1007.6
20260830043604 61 23 0.0 2.0 0.00 0.12 0.12 95 1007.6
20260830043110 61 44 0.0 3.0 0.00 0.12 0.12 94 1007.6
20260830042606 61 137 0.0 3.0 0.00 0.12 0.12 95 1007.7
20260830041605 61 45 0.0 2.0 0.00 0.12 0.12 95 1007.6
20260830041105 61 102 0.0 2.0 0.00 0.12 0.12 94 1007.6
20260830040111 61 120 1.0 2.0 0.00 0.12 0.12 94 1007.7
20260830035603 61 103 1.0 2.0 0.00 0.12 0.12 95 1007.6
20260830035105 61 44 0.0 3.0 0.00 0.12 0.12 94 1007.7
20260830034602 61 28 0.0 4.0 0.00 0.12 0.12 94 1007.8
20260830034102 61 178 0.0 4.0 0.00 0.12 0.12 94 1007.8
20260830033101 61 100 1.0 3.0 0.00 0.12 0.12 94 1007.7
20260830032104 61 35 1.0 3.0 0.00 0.12 0.12 94 1007.7
20260830031605 61 41 1.0 3.0 0.00 0.12 0.12 94 1007.8
20260830031107 61 34 1.0 3.0 0.00 0.12 0.12 94 1007.7
20260830030106 61 104 1.0 3.0 0.00 0.12 0.12 94 1007.7
20260830025605 61 47 1.0 3.0 0.00 0.12 0.12 94 1007.7
20260830025104 61 80 0.0 5.0 0.00 0.12 0.12 94 1007.7
20260830024559 61 41 1.0 5.0 0.00 0.12 0.12 94 1007.6
20260830024103 61 185 1.0 3.0 0.00 0.12 0.12 94 1007.7
20260830023601 61 142 1.0 3.0 0.00 0.12 0.12 94 1007.6